EW8459 Weather Reports


time (UTC)temp
C
wind
direction
speed
KPH
gust
KPH
rain 1hr
cm
rain 24hr
cm
rain mn
cm
humidity
%
barometer
mb
20260507212006 16 284 4.8 17.7 0.00 0.00 0.00 31 1003.7
20260507211503 16 270 4.8 12.9 0.00 0.00 0.00 31 1003.4
20260507211006 16 290 4.8 11.3 0.00 0.00 0.00 31 1003.6
20260507210503 16 340 3.2 9.7 0.00 0.00 0.00 32 1003.6
20260507210007 16 292 3.2 12.9 0.00 0.00 0.00 31 1003.6
20260507205503 16 267 4.8 12.9 0.00 0.00 0.00 31 1003.6
20260507205007 16 323 4.8 12.9 0.00 0.00 0.00 30 1003.5
20260507204505 16 333 4.8 17.7 0.00 0.00 0.00 30 1003.5
20260507204006 16 326 3.2 17.7 0.00 0.00 0.00 32 1003.6
20260507203504 16 306 3.2 12.9 0.00 0.00 0.00 32 1003.5
20260507203006 16 303 4.8 11.3 0.00 0.00 0.00 32 1003.5
20260507202725 16 214 4.8 16.1 0.00 0.00 0.00 30 1003.4
20260507202006 16 311 4.8 16.1 0.00 0.00 0.00 30 1003.6
20260507201941 16 321 4.8 12.9 0.00 0.00 0.00 31 1003.5
20260507201007 16 174 4.8 17.7 0.00 0.00 0.00 29 1003.6
20260507200504 16 311 4.8 17.7 0.00 0.00 0.00 29 1003.7
20260507200007 17 296 4.8 16.1 0.00 0.00 0.00 30 1003.7
20260507195504 17 327 4.8 17.7 0.00 0.00 0.00 31 1003.6
20260507195006 17 211 4.8 17.7 0.00 0.00 0.00 31 1003.6
20260507194504 17 259 3.2 9.7 0.00 0.00 0.00 32 1003.6
20260507194228 16 294 3.2 9.7 0.00 0.00 0.00 31 1003.7
20260507193504 16 284 3.2 11.3 0.00 0.00 0.00 33 1003.7
20260507193007 16 272 3.2 11.3 0.00 0.00 0.00 31 1003.8
20260507192503 16 184 4.8 11.3 0.00 0.00 0.00 31 1003.9
20260507192006 16 350 4.8 16.1 0.00 0.00 0.00 30 1003.9
20260507191719 16 11 4.8 17.7 0.00 0.00 0.00 32 1004.0
20260507191004 16 310 4.8 17.7 0.00 0.00 0.00 32 1004.2
20260507190949 17 317 4.8 16.1 0.00 0.00 0.00 33 1004.0
20260507190005 16 326 6.4 16.1 0.00 0.00 0.00 34 1004.0
20260507185502 17 326 4.8 16.1 0.00 0.00 0.00 32 1004.0
20260507185005 17 290 3.2 16.1 0.00 0.00 0.00 32 1004.2
20260507184502 17 232 3.2 11.3 0.00 0.00 0.00 32 1004.2
20260507184004 17 253 4.8 12.9 0.00 0.00 0.00 32 1004.3
20260507183501 17 304 6.4 12.9 0.00 0.00 0.00 32 1004.3
20260507183005 17 331 4.8 16.1 0.00 0.00 0.00 33 1004.3
20260507182723 17 317 4.8 16.1 0.00 0.00 0.00 34 1004.3
20260507182005 17 315 4.8 14.5 0.00 0.00 0.00 34 1004.3
20260507181502 17 240 4.8 14.5 0.00 0.00 0.00 33 1004.3
20260507181005 17 348 4.8 9.7 0.00 0.00 0.00 32 1004.3
20260507180501 17 284 4.8 9.7 0.00 0.00 0.00 34 1004.4
20260507180005 17 307 3.2 9.7 0.00 0.00 0.00 34 1004.4
20260507175502 17 287 3.2 9.7 0.00 0.00 0.00 35 1004.3
20260507175003 17 278 4.8 9.7 0.00 0.00 0.00 34 1004.3
20260507174502 17 273 4.8 9.7 0.00 0.00 0.00 34 1004.2
20260507174224 16 230 4.8 12.9 0.00 0.00 0.00 35 1004.3
20260507173501 17 326 4.8 12.9 0.00 0.00 0.00 34 1004.3
20260507173002 16 298 3.2 12.9 0.00 0.00 0.00 37 1004.4
20260507172503 16 313 4.8 12.9 0.00 0.00 0.00 36 1004.5
20260507172002 16 355 4.8 11.3 0.00 0.00 0.00 34 1004.4
20260507171503 16 283 4.8 14.5 0.00 0.00 0.00 37 1004.5
20260507171002 16 26 6.4 16.1 0.00 0.00 0.00 35 1004.4
20260507170502 16 321 6.4 16.1 0.00 0.00 0.00 39 1004.6
20260507170002 16 229 4.8 11.3 0.00 0.00 0.00 36 1004.6
20260507165502 16 320 4.8 14.5 0.00 0.00 0.00 40 1004.7
20260507165227 16 300 4.8 14.5 0.00 0.00 0.00 39 1004.7
20260507164503 16 348 4.8 14.5 0.00 0.00 0.00 41 1004.8
20260507164001 16 313 4.8 14.5 0.00 0.00 0.00 44 1004.8
20260507163502 16 281 4.8 14.5 0.00 0.00 0.00 45 1005.0
20260507163002 15 286 4.8 9.7 0.00 0.00 0.00 45 1005.0
20260507162503 15 285 3.2 9.7 0.00 0.00 0.00 49 1005.0
20260507162002 16 263 1.6 9.7 0.00 0.00 0.00 51 1005.1
20260507161501 15 147 1.6 6.4 0.00 0.00 0.00 53 1005.0
20260507161001 15 266 1.6 9.7 0.00 0.00 0.00 52 1005.0
20260507160502 15 134 1.6 9.7 0.00 0.00 0.00 54 1005.2
20260507160227 15 309 3.2 8.0 0.00 0.00 0.00 53 1005.2
20260507155502 15 327 3.2 6.4 0.00 0.00 0.00 53 1005.3
20260507155001 15 245 3.2 9.7 0.00 0.00 0.00 52 1005.3
20260507154502 15 230 4.8 9.7 0.00 0.00 0.00 51 1005.4
20260507154440 15 339 3.2 9.7 0.00 0.00 0.00 55 1005.4
20260507153502 15 345 3.2 9.7 0.00 0.00 0.00 56 1005.5
20260507153001 15 327 3.2 11.3 0.00 0.00 0.00 52 1005.6
20260507152502 15 250 3.2 11.3 0.00 0.00 0.00 53 1005.6
20260507152001 15 279 3.2 8.0 0.00 0.00 0.00 52 1005.6
20260507151502 15 296 3.2 9.7 0.00 0.00 0.00 52 1005.6
20260507151002 15 307 3.2 9.7 0.00 0.00 0.00 51 1005.7
20260507150502 15 213 1.6 6.4 0.00 0.00 0.00 54 1005.8
20260507150452 15 204 1.6 8.0 0.00 0.00 0.00 51 1005.8
20260507145501 15 320 1.6 8.0 0.00 0.00 0.00 54 1005.9
20260507145001 15 34 1.6 6.4 0.00 0.00 0.00 51 1005.9
20260507144501 15 263 1.6 6.4 0.00 0.00 0.00 52 1005.9
20260507144232 15 244 1.6 6.4 0.00 0.00 0.00 51 1005.9
20260507143501 15 257 3.2 6.4 0.00 0.00 0.00 54 1005.8
20260507143004 15 318 3.2 9.7 0.00 0.00 0.00 51 1005.8
20260507142502 15 301 3.2 9.7 0.00 0.00 0.00 52 1005.8
20260507141958 15 41 3.2 8.0 0.00 0.00 0.00 53 1005.9
20260507141448 14 290 3.2 6.4 0.00 0.00 0.00 54 1005.8
20260507141204 14 282 3.2 12.9 0.00 0.00 0.00 53 1005.8
20260507140441 14 318 3.2 12.9 0.00 0.00 0.00 57 1005.8
20260507140205 14 338 1.6 8.0 0.00 0.00 0.00 55 1005.8
20260507135648 14 218 1.6 4.8 0.00 0.00 0.00 56 1005.7
20260507135633 14 13 1.6 6.4 0.00 0.00 0.00 56 1005.8
20260507134700 14 323 0.0 4.8 0.00 0.00 0.00 62 1005.7
20260507134205 13 325 1.6 4.8 0.00 0.00 0.00 61 1005.8
20260507133437 13 324 0.0 3.2 0.00 0.00 0.00 61 1005.9
20260507133204 13 309 1.6 8.0 0.00 0.00 0.00 65 1006.0
20260507132700 13 346 1.6 8.0 0.00 0.00 0.00 63 1006.2
20260507131935 12 264 1.6 4.8 0.00 0.00 0.00 66 1006.2
20260507131652 12 318 3.2 6.4 0.00 0.00 0.00 64 1006.2
20260507130931 12 234 3.2 6.4 0.00 0.00 0.00 68 1006.3
20260507130431 12 277 3.2 6.4 0.00 0.00 0.00 69 1006.2
20260507130153 12 309 1.6 6.4 0.00 0.00 0.00 71 1006.3
20260507125431 11 26 0.0 11.3 0.00 0.00 0.00 73 1006.4
20260507125159 11 333 1.6 11.3 0.00 0.00 0.00 73 1006.3
20260507124430 11 288 3.2 6.4 0.00 0.00 0.00 73 1006.5
20260507123924 11 13 3.2 9.7 0.00 0.00 0.00 72 1006.4
20260507123419 11 311 4.8 9.7 0.00 0.00 0.00 71 1006.4
20260507122915 11 322 3.2 9.7 0.00 0.00 0.00 73 1006.5
20260507122415 10 280 3.2 11.3 0.00 0.00 0.00 74 1006.4
20260507122139 10 23 1.6 11.3 0.00 0.00 0.00 77 1006.6
20260507121638 10 291 3.2 8.0 0.00 0.00 0.00 78 1006.5
20260507120914 10 283 1.6 8.0 0.00 0.00 0.00 79 1006.6
20260507120413 10 282 1.6 4.8 0.00 0.00 0.00 81 1006.6
20260507115913 9 298 1.6 4.8 0.00 0.00 0.00 83 1006.5
20260507115411 9 275 0.0 3.2 0.00 0.00 0.00 83 1006.4
20260507114909 9 284 0.0 4.8 0.00 0.00 0.00 83 1006.5
20260507114407 9 285 0.0 4.8 0.00 0.00 0.00 82 1006.5
20260507113905 8 284 0.0 4.8 0.00 0.00 0.00 83 1006.4
20260507113403 8 289 1.6 6.4 0.00 0.00 0.00 83 1006.4
20260507112903 8 281 1.6 6.4 0.00 0.00 0.00 84 1006.1
20260507112405 8 329 0.0 4.8 0.00 0.00 0.00 84 1006.2
20260507112342 8 248 0.0 0.0 0.00 0.00 0.00 85 1006.1
20260507112059 8 324 0.0 0.0 0.00 0.00 0.00 85 1006.2
20260507110904 8 245 0.0 0.0 0.00 0.00 0.00 86 1006.4
20260507110404 8 245 0.0 1.6 0.00 0.00 0.00 86 1006.4
20260507110126 8 0 0.0 1.6 0.00 0.00 0.00 85 1006.4
20260507105403 8 9 0.0 3.2 0.00 0.00 0.00 85 1006.2
20260507104904 8 9 0.0 3.2 0.00 0.00 0.00 85 1005.8
20260507104851 8 319 0.0 3.2 0.00 0.00 0.00 85 1006.0
20260507103903 8 329 1.6 11.3 0.00 0.00 0.00 85 1005.8
20260507103402 8 339 1.6 11.3 0.00 0.00 0.00 85 1005.8
20260507102902 8 350 1.6 6.4 0.00 0.00 0.00 85 1005.7
20260507102401 8 321 0.0 4.8 0.00 0.00 0.00 86 1005.6
20260507102124 8 321 1.6 4.8 0.00 0.00 0.00 85 1005.8
20260507101403 8 319 1.6 4.8 0.00 0.00 0.00 86 1005.9
20260507100902 8 342 1.6 6.4 0.00 0.00 0.00 86 1005.8
20260507100402 8 257 1.6 6.4 0.00 0.00 0.00 86 1005.8
20260507095902 8 24 1.6 4.8 0.00 0.00 0.00 87 1005.6
20260507095632 8 267 1.6 4.8 0.00 0.00 0.00 86 1006.1
20260507094902 8 297 0.0 4.8 0.00 0.00 0.00 87 1005.8
20260507094402 8 296 1.6 6.4 0.00 0.00 0.00 87 1005.6
20260507094126 8 294 1.6 6.4 0.00 0.00 0.00 88 1005.9
20260507093404 8 9 1.6 11.3 0.00 0.00 0.00 88 1005.7
20260507092859 8 291 1.6 11.3 0.00 0.00 0.00 88 1005.7
20260507092353 8 295 1.6 6.4 0.00 0.00 0.00 88 1005.8
20260507091851 8 298 0.0 4.8 0.00 0.00 0.00 89 1005.7
20260507091830 8 286 0.0 4.8 0.03 0.00 0.00 89 1006.0
20260507090851 8 323 0.0 3.2 0.03 0.00 0.00 89 1005.7
20260507090351 8 311 0.0 1.6 0.03 0.00 0.00 90 1005.6
20260507085849 8 315 0.0 1.6 0.03 0.00 0.00 89 1005.5
20260507085349 8 315 0.0 1.6 0.03 0.00 0.00 89 1005.4
20260507084849 8 310 0.0 1.6 0.03 0.00 0.00 89 1005.5
20260507084349 8 328 0.0 3.2 0.03 0.00 0.00 89 1005.7
20260507083849 9 328 0.0 3.2 0.03 0.00 0.00 89 1005.5
20260507083347 9 298 0.0 3.2 0.03 0.00 0.00 88 1005.5
20260507083104 9 298 1.6 6.4 0.03 0.00 0.00 88 1005.4
20260507082343 9 342 1.6 6.4 0.03 0.00 0.00 88 1005.5
20260507082104 9 277 0.0 4.8 0.03 0.00 0.00 88 1005.3
20260507081341 9 255 0.0 3.2 0.00 0.00 0.00 87 1005.3
20260507081329 9 266 1.6 4.8 0.00 0.00 0.00 87 1005.3
20260507080608 10 323 1.6 6.4 0.00 0.00 0.00 86 1005.4
20260507075837 10 294 1.6 6.4 0.00 0.00 0.00 86 1005.5
20260507075335 10 311 1.6 4.8 0.00 0.00 0.00 85 1005.4
20260507074834 10 273 1.6 8.0 0.00 0.00 0.00 85 1005.7
20260507074335 10 297 3.2 11.3 0.00 0.00 0.00 85 1005.6
20260507073833 10 297 3.2 11.3 0.00 0.00 0.00 85 1005.3
20260507073331 10 305 3.2 11.3 0.00 0.00 0.00 86 1005.0
20260507072831 10 286 1.6 11.3 0.00 0.00 0.00 86 1005.1
20260507072333 10 334 3.2 11.3 0.00 0.00 0.00 86 1004.8
20260507071830 10 318 4.8 16.1 0.00 0.00 0.00 85 1005.0
20260507071559 10 296 4.8 16.1 0.00 0.00 0.00 85 1005.1
20260507071056 10 335 3.2 17.7 0.00 0.00 0.00 87 1005.1
20260507070333 10 316 3.2 17.7 0.00 0.00 0.00 87 1005.3
20260507065831 10 300 1.6 12.9 0.00 0.00 0.00 88 1004.8
20260507065330 10 289 1.6 12.9 0.00 0.00 0.00 88 1005.0
20260507064829 10 299 0.0 0.0 0.00 0.00 0.00 89 1004.9
20260507064553 10 329 0.0 0.0 0.00 0.00 0.00 89 1004.9
20260507063823 10 289 0.0 0.0 0.00 0.00 0.00 90 1004.8
20260507063321 10 285 0.0 0.0 0.00 0.00 0.00 90 1004.6
20260507062821 10 289 0.0 0.0 0.00 0.00 0.00 89 1004.5
20260507062321 10 289 0.0 6.4 0.00 0.00 0.00 90 1004.6
20260507061821 10 288 0.0 6.4 0.00 0.00 0.00 89 1004.7
20260507061320 10 302 0.0 3.2 0.00 0.00 0.00 89 1004.6
20260507060821 10 336 0.0 4.8 0.00 0.00 0.00 89 1004.6
20260507060321 10 295 1.6 4.8 0.00 0.00 0.00 90 1004.7
20260507055821 11 302 1.6 9.7 0.00 0.00 0.00 90 1004.8
20260507055548 11 254 1.6 9.7 0.00 0.00 0.00 90 1004.8
20260507054820 11 264 0.0 3.2 0.00 0.00 0.00 91 1005.0
20260507054320 11 310 0.0 3.2 0.00 0.00 0.00 92 1005.0
20260507053821 11 318 0.0 3.2 0.00 0.00 0.00 91 1005.1
20260507053325 11 318 0.0 3.2 0.00 0.00 0.00 92 1004.8
20260507052823 11 282 0.0 3.2 0.00 0.00 0.00 92 1005.0
20260507052325 11 325 0.0 1.6 0.00 0.00 0.00 92 1005.2
20260507051822 11 291 0.0 4.8 0.00 0.00 0.00 92 1005.3
20260507051325 11 288 0.0 4.8 0.00 0.00 0.00 91 1005.1
20260507050815 11 304 0.0 0.0 0.00 0.00 0.00 91 1004.9
20260507050803 11 318 1.6 0.0 0.00 0.00 0.00 91 1005.0
20260507045652 11 288 1.6 4.8 0.00 0.00 0.00 91 1005.0
20260507045154 11 303 1.6 4.8 0.00 0.00 0.00 92 1004.9
20260507044650 11 295 1.6 4.8 0.00 0.00 0.00 92 1004.8
20260507044144 11 285 1.6 4.8 0.00 0.00 0.00 92 1004.7
20260507043638 11 277 1.6 4.8 0.00 0.00 0.00 91 1004.9
20260507043136 11 277 1.6 6.4 0.00 0.00 0.00 91 1004.8
20260507042637 12 311 3.2 8.0 0.00 0.00 0.00 91 1004.9
20260507042136 12 295 3.2 11.3 0.00 0.00 0.00 90 1004.9
20260507041636 12 287 3.2 11.3 0.03 0.00 0.00 90 1005.0
20260507041401 12 292 3.2 11.3 0.03 0.00 0.00 90 1005.1
20260507040634 12 290 3.2 11.3 0.03 0.00 0.00 91 1005.0
20260507040137 13 269 3.2 11.3 0.03 0.00 0.00 91 1004.7
20260507035633 13 308 3.2 11.3 0.03 0.00 0.00 91 1004.6
20260507035133 13 321 3.2 12.9 0.03 0.00 0.00 91 1004.5
20260507034631 14 313 3.2 12.9 0.03 0.00 0.00 90 1004.4
20260507034134 14 327 3.2 11.3 0.03 0.00 0.00 91 1004.3
20260507033630 15 326 1.6 9.7 0.03 0.00 0.00 92 1004.2
20260507033134 15 316 1.6 9.7 0.03 0.00 0.00 93 1004.1
20260507032631 15 299 1.6 12.9 0.03 0.00 0.00 93 1003.9
20260507032131 15 298 1.6 12.9 0.03 0.00 0.00 94 1003.9
20260507031631 15 325 0.0 3.2 0.00 0.00 0.00 93 1003.9
20260507031130 15 275 0.0 4.8 0.00 0.00 0.00 93 1003.8
20260507030631 15 245 0.0 4.8 0.00 0.00 0.00 93 1003.7
20260507030127 15 317 1.6 6.4 0.00 0.00 0.00 93 1003.8
20260507025620 15 220 1.6 6.4 0.00 0.00 0.00 93 1003.7
20260507025116 15 162 0.0 6.4 0.00 0.00 0.00 93 1003.6
20260507024607 15 155 0.0 6.4 0.00 0.00 0.00 93 1003.6
20260507024306 15 180 1.6 6.4 0.00 0.00 0.00 93 1003.7
20260507024252 15 206 0.0 6.4 0.00 0.00 0.00 93 1003.7
20260507023106 15 179 0.0 4.8 0.00 0.00 0.00 93 1003.7
20260507022602 15 170 0.0 6.4 0.00 0.00 0.00 93 1003.5
20260507022105 15 202 1.6 6.4 0.00 0.00 0.00 93 1003.6
20260507021826 15 151 1.6 6.4 0.00 0.00 0.00 93 1003.6
20260507021105 15 156 1.6 6.4 0.00 0.00 0.00 93 1003.5
20260507020603 15 184 3.2 9.7 0.00 0.00 0.00 93 1003.6
20260507020329 15 200 3.2 9.7 0.00 0.00 0.00 93 1003.7
20260507015604 15 188 1.6 6.4 0.00 0.00 0.00 93 1003.7
20260507015106 15 192 1.6 6.4 0.00 0.00 0.00 93 1003.8
20260507014604 15 182 1.6 8.0 0.00 0.00 0.00 93 1003.7
20260507014105 15 152 1.6 8.0 0.00 0.00 0.00 93 1003.8
20260507013820 15 187 1.6 6.4 0.00 0.00 0.00 93 1003.8
20260507013104 15 162 3.2 12.9 0.00 0.00 0.00 93 1003.8
20260507012602 15 177 3.2 12.9 0.00 0.00 0.00 93 1003.9
20260507012104 15 163 3.2 9.7 0.00 0.00 0.00 93 1003.9
20260507011602 15 164 3.2 9.7 0.00 0.00 0.00 93 1003.9
20260507011102 15 234 3.2 8.0 0.00 0.00 0.00 93 1003.9
20260507010602 15 155 3.2 11.3 0.00 0.00 0.00 93 1004.0
20260507005602 15 155 4.8 11.3 0.00 0.00 0.00 93 1003.9
20260507005102 15 177 4.8 9.7 0.00 0.00 0.00 93 1003.9
20260507004602 15 171 3.2 11.3 0.00 0.00 0.00 93 1003.8
20260507004103 15 179 4.8 11.3 0.00 0.00 0.00 93 1003.8
20260507003602 15 165 4.8 9.7 0.00 0.00 0.00 93 1003.7
20260507003102 15 156 4.8 11.3 0.03 0.00 0.00 93 1003.8
20260507002824 15 113 4.8 11.3 0.05 0.00 0.00 93 1003.9
20260507002102 15 161 3.2 8.0 0.10 0.00 0.00 93 1003.8
20260507001602 15 191 3.2 8.0 0.13 0.00 0.00 93 1003.8
20260507001327 15 171 3.2 8.0 0.13 0.00 0.00 93 1003.7
20260507000603 15 151 3.2 11.3 0.15 0.00 0.00 93 1003.7
20260506235604 15 173 3.2 8.0 0.18 0.00 0.00 93 1003.6
20260506235316 15 163 3.2 8.0 0.20 0.00 0.00 93 1003.6
20260506234550 15 150 3.2 9.7 0.25 0.00 0.00 93 1003.6
20260506234044 15 157 3.2 9.7 0.28 0.00 0.00 93 1003.5
20260506233538 15 161 3.2 9.7 0.30 0.00 0.00 93 1003.7
20260506233034 15 153 4.8 9.7 0.33 0.00 0.00 93 1003.6
20260506232527 15 162 4.8 11.3 0.33 0.00 0.00 93 1003.6
20260506232242 15 206 4.8 11.3 0.28 0.00 0.00 93 1003.7
20260506231514 15 155 4.8 8.0 0.28 0.00 0.00 93 1003.7
20260506231009 15 162 3.2 8.0 0.30 0.00 0.00 93 1003.8
20260506230507 15 161 3.2 12.9 0.30 0.00 0.00 92 1004.0
20260506230006 15 178 3.2 12.9 0.28 0.00 0.00 93 1003.9
20260506225507 15 174 4.8 9.7 0.28 0.00 0.00 92 1003.8
20260506225007 15 155 3.2 8.0 0.23 0.00 0.00 92 1003.9
20260506224505 15 173 3.2 6.4 0.23 0.00 0.00 92 1004.0
20260506224005 15 159 3.2 8.0 0.20 0.00 0.00 92 1004.0
20260506223725 15 163 4.8 8.0 0.15 0.00 0.00 92 1004.0
20260506223004 15 107 3.2 8.0 0.13 0.00 0.00 92 1004.0
20260506222503 15 163 3.2 8.0 0.10 0.00 0.00 92 1004.1
20260506222002 15 171 3.2 11.3 0.13 0.00 0.00 92 1004.0
20260506221504 15 167 3.2 11.3 0.10 0.00 0.00 92 1004.1
20260506221003 15 167 3.2 8.0 0.10 0.00 0.00 92 1004.2
20260506220502 15 142 4.8 14.5 0.10 0.00 0.00 92 1004.3
20260506220002 15 183 4.8 14.5 0.13 0.00 0.00 91 1004.3
20260506215503 15 161 4.8 9.7 0.15 0.00 0.00 92 1004.3
20260506215002 16 163 4.8 9.7 0.18 0.00 0.00 91 1004.2
20260506214503 16 172 4.8 8.0 0.15 0.00 0.00 91 1004.3
20260506214002 16 164 4.8 8.0 0.18 0.00 0.00 91 1004.5
20260506213502 16 171 4.8 9.7 0.20 0.00 0.00 91 1004.5
20260506213002 16 176 4.8 12.9 0.23 0.00 0.00 91 1004.5
20260506212727 16 167 4.8 12.9 0.25 0.00 0.00 91 1004.6